4XCWE LLHA-LLHA

Flight info

Callsign 4XCWE
Flight time N/A
Altitude 1000
Route CVFR
Aircraft C152/L-VD/A

Departure

Time 2026-04-26 17:35
Airport Uri Michaeli Haifa International Airport (LLHA)

Arrival

Time N/A
Airport Uri Michaeli Haifa International Airport (LLHA)
Time Latitude Longitude Altitude Speed Heading
2026-04-26 17:31 32.81155 35.04175 19 ft 0 kts 140°
2026-04-26 17:32 32.81147 35.04201 20 ft 8 kts 77°
2026-04-26 17:32 32.81164 35.04264 21 ft 7 kts 77°
2026-04-26 17:33 32.81145 35.04307 21 ft 10 kts 160°
2026-04-26 17:33 32.80954 35.04391 22 ft 42 kts 161°
2026-04-26 17:33 32.80724 35.04490 20 ft 28 kts 163°
2026-04-26 17:34 32.80618 35.04561 19 ft 4 kts 279°
2026-04-26 17:34 32.80710 35.04508 20 ft 38 kts 340°
2026-04-26 17:34 32.81089 35.04373 71 ft 66 kts 336°
2026-04-26 17:34 32.81531 35.04263 260 ft 67 kts 339°
2026-04-26 17:35 32.82014 35.04153 387 ft 74 kts 341°
2026-04-26 17:35 32.82520 35.04119 536 ft 81 kts 24°
2026-04-26 17:35 32.82921 35.04727 519 ft 105 kts 85°
2026-04-26 17:35 32.82525 35.05334 745 ft 90 kts 147°
2026-04-26 17:36 32.82043 35.05695 941 ft 79 kts 155°
2026-04-26 17:36 32.81545 35.06011 988 ft 87 kts 156°
2026-04-26 17:36 32.80984 35.06348 1014 ft 89 kts 167°
2026-04-26 17:36 32.80356 35.06541 989 ft 95 kts 173°
2026-04-26 17:37 32.79737 35.06768 1012 ft 99 kts 147°
2026-04-26 17:37 32.79625 35.06900 1036 ft 97 kts 133°
2026-04-26 17:37 32.79337 35.07257 1020 ft 97 kts 152°
2026-04-26 17:38 32.78383 35.06345 829 ft 104 kts 240°
2026-04-26 17:38 32.78289 35.05552 760 ft 101 kts 295°
2026-04-26 17:38 32.78856 35.05117 704 ft 106 kts 340°
2026-04-26 17:38 32.79447 35.04975 558 ft 65 kts 348°
2026-04-26 17:39 32.79900 35.04865 351 ft 70 kts 337°
2026-04-26 17:39 32.80356 35.04676 164 ft 67 kts 330°
2026-04-26 17:39 32.80769 35.04492 24 ft 58 kts 330°
2026-04-26 17:39 32.81091 35.04348 27 ft 56 kts 332°
2026-04-26 17:40 32.81515 35.04193 175 ft 64 kts 335°
2026-04-26 17:40 32.81666 35.04150 219 ft 68 kts 340°
2026-04-26 17:40 32.82402 35.03980 499 ft 70 kts
2026-04-26 17:40 32.82759 35.04430 659 ft 79 kts 52°
2026-04-26 17:41 32.82860 35.05010 784 ft 86 kts 115°
2026-04-26 17:41 32.82533 35.05395 745 ft 95 kts 157°
2026-04-26 17:41 32.81906 35.05632 800 ft 92 kts 176°
2026-04-26 17:41 32.81277 35.05770 836 ft 92 kts 178°
2026-04-26 17:42 32.80640 35.05904 889 ft 94 kts 174°